K1UTS Weather Reports


time (UTC)temp
C
wind
direction
speed
KPH
gust
KPH
rain 1hr
cm
rain 24hr
cm
rain mn
cm
humidity
%
barometer
mb
20260507070023 11 337 0.0 0.0 0.00 0.00 0.00 92 1003.8
20260507064533 11 337 0.0 0.0 0.00 0.00 0.00 92 1003.5
20260507063020 11 337 0.0 0.0 0.00 0.00 0.00 92 1003.7
20260507061517 11 337 0.0 0.0 0.00 0.00 0.00 92 1003.7
20260507060014 11 337 0.0 3.2 0.00 0.00 0.00 92 1003.7
20260507054511 12 304 0.0 1.6 0.00 0.00 0.00 92 1003.7
20260507053009 12 279 0.0 1.6 0.00 0.00 0.00 93 1004.0
20260507051508 12 224 0.0 1.6 0.00 0.00 0.00 92 1004.1
20260507050107 12 224 0.0 1.6 0.00 0.00 0.00 93 1004.0
20260507044503 13 250 0.0 1.6 0.00 0.00 0.00 93 1004.1
20260507043100 13 226 0.0 3.2 0.00 0.00 0.00 93 1003.8
20260507041559 13 5 0.0 3.2 0.00 0.00 0.00 93 1003.8
20260507040054 14 242 0.0 4.8 0.00 0.00 0.00 93 1003.9
20260507034554 14 152 0.0 3.2 0.00 0.00 0.00 93 1003.6
20260507033052 14 299 0.0 3.2 0.00 0.00 0.00 93 1003.2
20260507031552 14 174 0.0 3.2 0.00 0.00 0.00 93 1003.1
20260507030052 14 174 0.0 4.8 0.00 0.00 0.00 93 1002.8
20260507024551 14 62 0.0 3.2 0.00 0.00 0.00 93 1002.8
20260507023049 14 177 1.6 12.9 0.00 0.00 0.00 93 1002.7
20260507021549 14 231 1.6 6.4 0.00 0.00 0.00 93 1002.7
20260507014554 14 190 1.6 6.4 0.00 0.00 0.00 93 1002.7
20260507013047 14 119 1.6 8.0 0.00 0.00 0.00 93 1002.7
20260507011547 14 133 3.2 8.0 0.00 0.00 0.00 93 1002.7
20260507010059 14 311 0.0 12.9 0.00 0.00 0.00 92 1002.8
20260507004546 14 234 1.6 9.7 0.00 0.00 0.00 92 1002.8
20260507003044 15 241 1.6 11.3 0.00 0.00 0.00 92 1002.8
20260507001547 15 186 3.2 9.7 0.00 0.00 0.00 92 1002.6
20260507000043 15 207 3.2 11.3 0.00 0.00 0.00 92 1002.6
20260506234542 15 182 0.0 8.0 0.00 0.00 0.00 92 1002.5
20260506233041 15 217 4.8 11.3 0.00 0.00 0.00 92 1002.4
20260506231555 15 194 0.0 8.0 0.00 0.00 0.00 92 1002.3
20260506230053 15 185 4.8 11.3 0.00 0.00 0.00 91 1002.5
20260506224540 15 194 1.6 8.0 0.00 0.00 0.00 91 1002.6
20260506223038 15 200 1.6 14.5 0.00 0.00 0.00 91 1002.6
20260506221540 15 119 3.2 16.1 0.00 0.00 0.00 91 1002.7
20260506220038 15 165 4.8 16.1 0.00 0.00 0.00 91 1002.8
20260506214537 15 162 1.6 12.9 0.00 0.00 0.00 91 1002.9
20260506213033 15 201 4.8 12.9 0.00 0.00 0.00 90 1003.1
20260506211533 15 128 1.6 11.3 0.00 0.00 0.00 90 1003.4
20260506210031 15 41 3.2 19.3 0.00 0.00 0.00 89 1003.4
20260506204533 15 229 3.2 14.5 0.00 0.00 0.00 89 1003.5
20260506203025 16 70 1.6 8.0 0.00 0.00 0.00 88 1003.6
20260506201535 16 193 3.2 11.3 0.00 0.00 0.00 87 1003.5
20260506200023 16 249 3.2 9.7 0.00 0.00 0.00 86 1003.6
20260506194523 17 200 3.2 9.7 0.00 0.00 0.00 85 1003.6
20260506193025 17 183 3.2 8.0 0.00 0.00 0.00 83 1003.6
20260506191520 18 215 1.6 8.0 0.00 0.00 0.00 80 1003.5
20260506190118 18 246 3.2 24.1 0.00 0.00 0.00 75 1003.7
20260506184521 20 331 3.2 9.7 0.00 0.00 0.00 70 1003.8
20260506183016 20 208 1.6 6.4 0.00 0.00 0.00 67 1003.8
20260506181518 21 123 3.2 22.5 0.00 0.00 0.00 60 1003.7
20260506180022 22 257 3.2 25.7 0.00 0.00 0.00 57 1003.7
20260506174523 22 182 4.8 17.7 0.00 0.00 0.00 55 1003.7
20260506173015 22 226 8.0 24.1 0.00 0.00 0.00 54 1003.9
20260506171522 22 246 3.2 12.9 0.00 0.00 0.00 54 1003.8
20260506170011 22 170 4.8 25.7 0.00 0.00 0.00 55 1004.0
20260506164508 22 211 4.8 14.5 0.00 0.00 0.00 57 1004.4
20260506163005 21 156 6.4 17.7 0.00 0.00 0.00 58 1004.5
20260506161506 21 225 4.8 16.1 0.00 0.00 0.00 60 1004.7
20260506160002 21 259 4.8 17.7 0.00 0.00 0.00 59 1005.0
20260506154501 21 202 3.2 17.7 0.00 0.00 0.00 59 1005.2
20260506153058 21 308 4.8 17.7 0.00 0.00 0.00 59 1005.5
20260506151558 21 134 4.8 16.1 0.00 0.00 0.00 60 1005.7
20260506150057 21 148 4.8 12.9 0.00 0.00 0.00 61 1005.8
20260506144601 21 247 3.2 12.9 0.00 0.00 0.00 64 1006.1
20260506143052 21 182 4.8 12.9 0.00 0.00 0.00 63 1005.8
20260506141551 21 213 3.2 17.7 0.00 0.00 0.00 64 1005.7
20260506140049 20 221 6.4 14.5 0.00 0.00 0.00 65 1005.9
20260506134545 20 184 1.6 12.9 0.00 0.00 0.00 69 1005.9
20260506133042 18 208 6.4 16.1 0.00 0.00 0.00 70 1006.3
20260506131548 18 204 3.2 14.5 0.00 0.00 0.00 71 1006.5
20260506130038 18 197 1.6 16.1 0.00 0.00 0.00 72 1006.4
20260506124536 18 173 1.6 9.7 0.00 0.00 0.00 73 1006.4
20260506123032 17 178 3.2 16.1 0.00 0.00 0.00 75 1006.5
20260506121530 17 244 4.8 12.9 0.00 0.00 0.00 75 1006.6
20260506120030 16 210 3.2 17.7 0.00 0.00 0.00 78 1006.5
20260506114536 16 141 3.2 19.3 0.00 0.00 0.00 78 1006.7
20260506113027 16 207 3.2 12.9 0.00 0.00 0.00 78 1006.8
20260506111525 16 168 3.2 16.1 0.00 0.00 0.00 78 1006.9
20260506110027 16 241 3.2 14.5 0.00 0.00 0.00 80 1006.7
20260506104525 15 135 3.2 14.5 0.00 0.00 0.00 80 1006.8
20260506103022 15 194 3.2 12.9 0.00 0.00 0.00 80 1006.8
20260506101520 15 196 1.6 9.7 0.00 0.00 0.00 79 1006.8
20260506100023 15 155 3.2 11.3 0.00 0.00 0.00 79 1006.6
20260506094517 15 206 4.8 11.3 0.00 0.00 0.00 79 1006.7
20260506093015 15 111 3.2 14.5 0.00 0.00 0.00 78 1006.5
20260506091518 15 166 1.6 8.0 0.00 0.00 0.00 78 1006.7
20260506090013 15 206 3.2 12.9 0.00 0.00 0.00 77 1006.6
20260506084511 15 172 1.6 9.7 0.00 0.00 0.00 77 1006.7
20260506083009 15 201 3.2 12.9 0.00 0.00 0.00 76 1006.7
20260506081509 16 217 3.2 12.9 0.00 0.00 0.00 75 1006.7
20260506073100 16 213 4.8 9.7 0.00 0.00 0.00 72 1006.5
20260506071601 16 181 4.8 11.3 0.00 0.00 0.00 71 1006.4